Skip Page Navigation
NASA JPL Caltech
NASA Logo - Jet Propulsion Laboratory + View the NASA Portal
+ Center for Near-Earth Object Studies
JPL Home Earth Solar System Stars & Galaxies Technology
JPL Solar System Dynamics
BODIES ORBITS EPHEMERIDES TOOLS PHYSICAL DATA DISCOVERY FAQ SITE MAP
JPL Small-Body Database Browser
Search: [ help ]  
123345 (2000 VF60)
Classification: Main-belt Asteroid          SPK-ID: 2123345
Ephemeris | Orbit Diagram | Orbital Elements | Mission Design | Physical Parameters | Discovery Circumstances | Close-Approach Data ]

[ hide orbit diagram ]

For accurate long-term ephemerides, please instead use our Horizons system.This orbit viewer was implemented using two-body methods, and hence should not be used for determining accurate long-term trajectories (over several years or decades) or planetary encounter circumstances.


[ revert to old Java-based viewer ]

Orbital Elements at Epoch 2459000.5 (2020-May-31.0) TDB
Reference: JPL 16 (heliocentric ecliptic J2000)
 Element Value Uncertainty (1-sigma)   Units 
e .1330421149630843 5.4699e-08  
a 2.607024462410665 1.9815e-08 au
q 2.260180414171053 1.4033e-07 au
i 12.56714806018477 4.9562e-06 deg
node 38.83581093363598 2.8194e-05 deg
peri 72.79355972124733 3.5358e-05 deg
M 184.0211483366867 2.5059e-05 deg
tp 2459752.078010205368
(2022-Jun-21.57801021)
0.00011268 TDB
period 1537.503405190922
4.21
1.7529e-05
4.799e-08
d
yr
n .2341458228870045 2.6695e-09 deg/d
Q 2.953868510650278 2.2451e-08 au
  Orbit Determination Parameters
   # obs. used (total)      408  
   data-arc span      7255 days (19.86 yr)  
   first obs. used      2000-11-01  
   last obs. used      2020-09-12  
   planetary ephem.      DE431  
   SB-pert. ephem.      SB431-N16  
   condition code      0  
   norm. resid. RMS      .62792  
   source      ORB  
   producer      Otto Matic  
   solution date      2020-Nov-12 17:35:53  

Additional Information
 Earth MOID = 1.31316 au 
 Jupiter MOID = 2.26615 au 
 T_jup = 3.365 
[ show covariance matrix ]

Ephemeris | Orbit Diagram | Orbital Elements | Mission Design | Physical Parameters | Discovery Circumstances | Close-Approach Data ]

Physical Parameter Table
Parameter Symbol Value Units Sigma Reference Notes
absolute magnitude H 15.5   n/a MPO385541  
diameter diameter 2.220 km 0.296 urn:nasa:pds:neowise_diameters_albedos::2.0[mainbelt] (http://adsabs.harvard.edu/abs/2011ApJ...741...68M)  
geometric albedo albedo 0.298   0.140 urn:nasa:pds:neowise_diameters_albedos::2.0[mainbelt] (http://adsabs.harvard.edu/abs/2011ApJ...741...68M)  

123345 (2000 VF60)          Discovered 2000-Nov-01 by LINEAR at Socorro
Reference: 20060314/Numbers.arcLast Updated: 2006-03-23

[ show close-approach data ]
Ephemeris | Orbit Diagram | Orbital Elements | Mission Design | Physical Parameters | Discovery Circumstances | Close-Approach Data ]
ABOUT SSD CREDITS/AWARDS PRIVACY/COPYRIGHT GLOSSARY LINKS
FirstGov 2020-Dec-02 03:19 UT
(server date/time)  
NASA Home Page
Site Manager:   Ryan S. Park
Webmaster  Alan B. Chamberlin